FALCON 9 R/B, 55684

Orbit data source: Space-Track

FALCON 9 R/B, 55684 is space debris in HEO originally from a launch on Sat, 18 Feb 2023 UTC launched from the Air Force Eastern Test Range (AFETR). Debris objects in space refer to the collection of defunct objects orbiting the Earth. Examples of debris include non-operational satellites, rocket bodies, and fragments generated from explosions, collisions, or faulty payload assembly.

Loading next visibility...
Identifier
55684, 2023-022B
Orbit
HEO
Country
Flag of USUS
Related business
Manufacturer
SpaceX
Mission
Spacecraft
Bus & Motor
F9ST2, Unknown motor
Mass
~4,000 kg wet, ~4,000 kg dry
Launch date (UTC)
2023-02-18 (3 years ago)
Launch vehicle
Unknown
Launch site
Air Force Eastern Test Range (AFETR)
Object type
Payload
Rocket body
Debris
Shape & HBR
Cyl, 7.8 m
Radar Cross Section
39.980 m², Large (>1 m²)

Expand to show TLE details & history
Last TLE update: 2 days ago

TLE from 2 days ago
0 FALCON 9 R/B
1 55684U 23022B   26171.23537319  .00009124  00000-0  13619-2 0  9995
2 55684  27.0043 343.3105 7217424 160.5418 256.1281  2.37587281 26261
Epoch: 2026-06-20T05:38Z
TLE epoch observation values (Epoch: 2026-06-20T05:38:56.243Z)
Latitude
-0.00001°
Longitude
-9.88269°
Altitude
29,153.594 km
Speed
2.374 km/s
True Right ascension
22h 53m 13s
True Declination
0° 00' 00"
Sunlit
Object was in daylight at epoch
Visualization orbit readout
Latitude
Unknown
Longitude
Unknown
Altitude
Unknown
Speed
Unknown
Apparent Right ascension
Unknown
Apparent Declination
Unknown
Sunlit
N/A
Visualization observer readout
Local Sidereal Time
23:27:22
Azimuth
Unknown
Elevation
Unknown
Doppler factor
Unknown
Orbital elements
Apogee altitude
34,475.019 km
Perigee altitude
224.303 km
Semi-major axis
23,727.798 km
Eccentricity
0.72174
Inclination
27.0043°
RAAN
343.3105°
Arg. of periapsis
160.5418°
True anomaly
199.48511°
Mean anomaly
256.1281°
Eccentric anomaly
226.25422°
Mean motion
0.59382 °/min
Orbital period
606.24 mins
BSTAR
0.0013619
Loading maneuver chart data...
Computing Atmospheric mass density...
Loading historical data...
Loading historical data...
Loading historical data...
Loading historical data...
Loading historical data...
Loading historical data...
Loading historical data...
Other satellites on launch #22 in the year 2023 (2023-02-18 UTC)

Documentation

Showing up to 5 results
|